Location: Bergenweiler
(48.5744°N, 10.2722°E)
Time: 06:27:02
(UTC+00:00)

Daily predictions for brighter satellites

Satellite Brightness Start Highest point End
(mag) Time Altitude Azimuth Time Altitude Azimuth Time Altitude Azimuth
USA 229 DEB 4.0 17:22:20 10° NW 17:29:41 83° NE 17:37:34 10° SE
USA 229 4.0 17:22:26 10° NW 17:29:47 83° NE 17:37:40 10° SE
Cosmos 1656 4.4 17:26:58 10° SW 17:32:30 60° WNW 17:38:09 10° NNE
Cosmos 540 Rocket 3.4 17:27:49 10° NNW 17:32:56 68° ENE 17:38:00 10° SSE
MOS 1-B 4.4 17:27:25 10° SSE 17:33:08 65° ENE 17:38:54 10° N
KORONAS-FOTON 3.9 17:29:21 10° N 17:33:15 84° W 17:37:06 10° S
Cosmos 2227 Rocket 2.8 17:27:43 10° NNW 17:33:18 63° WSW 17:38:52 10° SSE
Cosmos 1733 3.7 17:30:08 10° SSE 17:33:34 34° E 17:37:00 10° NNE
Cosmos 1733 Rocket 3.4 17:34:17 10° SSE 17:38:28 43° E 17:42:41 10° NNE
Meteor 2-19 Rocket 4.5 17:32:35 10° S 17:38:43 86° E 17:44:54 10° N
CZ-4B R/B 3.2 17:36:36 10° SSE 17:41:54 65° ENE 17:47:20 10° N
Cosmos 841 Rocket 3.6 17:38:45 10° NNW 17:43:52 56° ENE 17:48:55 10° SE
Cosmos 1707 4.1 17:40:16 10° NNW 17:43:54 44° W 17:47:31 10° SSW
Cosmos 2084 3.4 17:40:16 10° SSW 17:43:58 48° SE 17:47:40 10° NE
Cosmos 1626 2.6 17:41:52 10° NNW 17:45:28 64° W 17:49:02 10° S
Cosmos 1850 Rocket 4.4 17:41:29 10° S 17:46:20 42° ESE 17:51:17 10° NE
Cosmos 1975 3.4 17:42:41 10° SSW 17:46:42 64° WNW 17:50:44 10° N
ISS -3.7 17:43:31 10° WNW 17:46:53 76° NNE 17:49:52 13° ESE
Cosmos 2297 Rocket 4.1 17:42:16 10° NW 17:47:17 33° WSW 17:52:16 10° SSW
Okean 2 3.4 17:44:33 10° N 17:48:44 87° W 17:52:53 10° S
Cosmos 1980 Rocket 2.4 17:44:05 10° S 17:49:30 50° ESE 17:54:55 10° NE
COSMO-SKYMED 1 2.9 17:45:12 10° N 17:49:34 74° WNW 17:53:53 10° SSW
Okean-O 4.0 17:46:36 10° ESE 17:49:51 20° ENE 17:53:07 10° NNE
PAYLOAD B 4.4 17:44:45 10° SSE 17:50:17 80° WSW 17:55:49 10° NNW
Cosmos 1763 Rocket 4.2 17:46:50 10° NNW 17:51:48 55° WSW 17:56:44 10° S
HJ-1C 3.3 17:49:12 10° SSE 17:52:15 54° ENE 17:55:19 10° N
CZ-4 R/B 1.7 17:48:26 10° SE 17:52:26 48° ENE 17:56:29 10° N
Cosmos 1954 Rocket 4.4 17:47:26 10° SSW 17:52:34 68° WNW 17:57:44 10° NNE
SJ-6B 4.0 17:54:52 13° ESE 17:57:06 22° ENE 18:00:02 10° NNE
Cosmos 2369 3.7 17:51:41 10° S 17:57:18 61° ESE 18:02:56 10° NNE
Cosmos 2278 4.2 17:59:38 10° S 18:04:48 37° ESE 18:10:00 10° NE
Meteor 2-10 4.2 18:00:37 10° S 18:06:12 63° E 18:11:40 10° NNE
USA 215 3.7 18:01:34 10° NE 18:07:59 60° NNW 18:14:23 10° W
USA 186 2.9 18:06:54 19° ESE 18:08:22 27° ENE 18:11:15 10° N
SL-16 R/B 3.3 18:04:27 10° SE 18:08:26 20° E 18:12:27 10° NE
IRIDIUM 104 4.4 18:03:58 10° SSE 18:09:01 53° E 18:14:06 10° NNE
Cosmos 1437 Rocket 3.7 18:10:46 10° SSE 18:13:50 24° E 18:16:54 10° NE
Cosmos 1844 Rocket 4.0 18:10:20 10° N 18:14:55 24° NE 18:17:36 17° E
SL-4 R/B 2.3 18:10:35 10° WNW 18:15:01 71° NNE 18:18:03 21° E
Cosmos 2285 Rocket 4.2 18:08:57 10° NNW 18:15:10 54° ENE 18:20:53 12° SE
Cosmos 1741 Rocket 3.9 18:09:57 10° S 18:15:12 69° ESE 18:20:27 10° NNE
ARGOS Delta rocket 4.1 18:09:52 10° N 18:15:16 85° WNW 18:20:22 10° SSW
IRIDIUM 114 4.3 18:13:00 10° S 18:18:09 64° E 18:23:19 10° N
Timation 2 Rocket 4.0 18:12:00 10° NNW 18:18:34 86° ENE 18:24:47 10° SSE
Okean O Rocket 1.8 18:17:24 10° S 18:21:45 76° WSW 18:26:09 10° NNW
BREEZE-M DEB (TANK) 4.3 18:17:21 10° SW 18:22:12 69° SSE 18:43:34 10° ENE
Cosmos 1908 Rocket 3.8 18:18:37 10° SSE 18:22:43 43° E 18:26:50 10° NNE
Nadezhda 4 Rocket 4.0 18:18:44 10° S 18:24:59 64° E 18:31:13 10° NNE
Landsat 5 4.0 18:21:54 10° NNE 18:26:10 40° E 18:30:23 10° SSE
Cosmos 1814 Rocket 4.0 18:21:04 10° NNW 18:26:20 65° ENE 18:30:29 16° SE
Cosmos 2292 Rocket 4.2 18:21:37 10° SSE 18:26:59 44° E 18:31:07 10° NNE
IRIDIUM 103 4.2 18:22:05 10° S 18:27:17 76° E 18:32:31 10° N
Meteor 2-21 4.3 18:21:42 10° S 18:27:43 78° E 18:33:46 10° NNE
Cosmos 1242 Rocket 3.7 18:24:36 10° SSW 18:28:02 45° WNW 18:31:29 10° N
Cosmos 1809 Rocket 4.5 18:24:00 10° S 18:30:05 85° W 18:36:12 10° N
Cosmos 1782 Rocket 4.3 18:29:51 28° ESE 18:30:25 29° E 18:34:11 10° NNE
BREEZE M DEB (TANK) 3.7 18:25:51 10° SSW 18:30:48 23° SSE 18:31:25 22° SE
SL-14 R/B 3.9 18:27:03 10° NNW 18:30:56 58° W 18:34:50 10° S
Cosmos 2263 Rocket 2.3 18:27:09 10° NNW 18:32:52 80° WSW 18:38:32 10° SSE
Cosmos 1805 4.2 18:31:02 10° SSW 18:34:47 50° WNW 18:38:36 10° N
Cosmos 1674 Rocket 3.9 18:31:03 10° NNW 18:35:26 67° W 18:39:49 10° S
YAOGAN 1 3.7 18:31:32 10° S 18:35:40 45° W 18:39:51 10° NNW
Cosmos 2227 4.1 18:30:11 10° NNW 18:35:50 69° ENE 18:39:32 22° SE
Meteor 2-5 Rocket 3.8 18:32:07 10° N 18:37:34 55° ENE 18:41:16 20° SE
Meteor 1-15 Rocket 4.2 18:32:50 10° S 18:38:17 58° E 18:43:45 10° NNE
Cosmos 1726 2.3 18:34:47 10° SSW 18:38:24 71° W 18:42:04 10° N
OBJECT-B 0.0 18:38:57 82° E 18:38:59 82° ENE 18:41:34 10° N
H-2A R/B 3.5 18:39:28 26° ENE 18:39:28 26° ENE 18:42:34 10° N
MetOp-A 4.3 18:43:45 29° ENE 18:43:45 29° ENE 18:46:53 10° N
IRIDIUM 106 4.5 18:40:22 10° S 18:45:35 77° W 18:50:50 10° N
Cosmos 1766 3.4 18:44:47 10° SSW 18:48:41 72° WNW 18:52:38 10° N
IRS-1C Rocket 4.0 18:46:16 23° SSE 18:49:34 67° ENE 18:54:48 10° N
Cosmos 1025 Rocket 3.4 18:47:02 10° N 18:51:08 41° ENE 18:51:17 41° E
Cosmos 2084 Rocket 4.0 18:48:28 10° NNW 18:52:00 34° NE 18:52:17 34° NE
SPOT 1/Viking Rocket 4.2 18:51:29 33° E 18:52:11 34° ENE 18:56:48 10° N
Cosmos 1697 Rocket 4.3 18:48:21 10° WSW 18:53:26 34° NW 18:58:34 10° NNE
CSL-04 Debris 4.1 18:50:17 13° SSE 18:55:13 88° WSW 19:00:40 10° NNW
Cosmos 1975 Rocket 3.1 18:56:06 10° N 19:00:28 55° ENE 19:00:50 53° E
Landsat 7 3.7 19:00:02 42° SE 19:01:30 68° ENE 19:06:12 10° N
IGS 5A 3.4 18:59:49 33° S 19:01:37 84° WSW 19:05:47 10° NNW
Cosmos 1092 Rocket 3.9 18:55:44 10° S 19:01:59 69° E 19:08:14 10° NNE
Resurs 01 Rocket 2.3 19:05:25 38° NE 19:05:25 38° NE 19:09:08 10° N
Cosmos 968 Rocket 3.3 19:04:51 10° SSW 19:10:05 73° ESE 19:15:20 10° NNE
Cosmos 1470 2.8 19:15:56 70° N 19:15:56 70° N 19:19:23 10° N
ATLAS 2AS CENTAUR R/B 4.5 19:10:38 10° NW 19:16:31 24° N 19:21:35 12° NE
ISS -1.8 19:20:30 10° W 19:22:45 25° WSW 19:22:45 25° WSW
Cosmos 2322 Rocket 3.6 19:19:00 10° S 19:27:51 24° NE 19:30:05 10° NE
Ariane Rocket 3.7 19:25:15 39° NE 19:25:15 39° NE 19:29:20 10° N
CSL-04 Rocket 4.2 19:21:40 19° S 19:25:23 57° W 19:30:43 10° NNW
Okean-O 3.3 19:24:11 32° SSW 19:25:58 53° W 19:30:20 10° NNW
Terra 4.0 19:28:16 14° NNE 19:28:16 14° NNE 19:29:26 10° NNE
Resurs 1-3 3.9 19:26:17 50° SSW 19:27:12 64° WSW 19:31:35 10° NNW
CZ-4 R/B 4.1 19:24:38 10° SW 19:27:37 19° W 19:30:38 10° NW
Gbstr 26 Del rocket 4.4 19:22:54 10° WSW 19:30:45 88° SSE 19:34:42 35° ENE
SJ-6B 4.2 19:30:23 27° SW 19:31:30 33° W 19:34:57 10° NNW
S3M 4.4 19:26:13 10° N 19:31:54 44° ENE 19:31:54 44° ENE
Cosmos 1980 Rocket 3.8 19:28:39 10° WSW 19:33:43 33° NW 19:38:47 10° NNE
USA 186 4.2 19:40:04 19° WSW 19:40:40 20° W 19:43:15 10° NW
deb Chang Zheng 4 4.0 19:41:18 56° WNW 19:41:18 56° WNW 19:44:52 10° NNW
Cosmos 836 Rocket 4.5 19:43:28 10° NNW 19:48:31 80° NNW 19:48:31 80° NNW
Meteor 1-24 Rocket 4.5 19:44:12 10° NNW 19:49:14 46° W 19:51:25 30° SW
USA 215 4.1 19:47:18 27° NE 19:50:24 43° N 19:56:29 10° WNW
SL-16 R/B 2.3 19:46:16 10° SW 19:51:55 74° WNW 19:57:37 10° NNE
SL-4 R/B 3.4 19:50:07 10° WNW 19:53:27 38° WSW 19:53:27 38° WSW
Cosmos 1417 Rocket 4.3 19:48:21 10° N 19:54:18 75° ENE 19:54:18 75° ENE
Cosmos 1844 Rocket 2.7 19:53:45 10° NNW 19:59:17 76° W 19:59:17 76° W
Cosmos 2278 Rocket 3.8 19:59:26 10° N 20:03:03 23° NNE 20:03:03 23° NNE
Cosmos 1553 Rocket 4.2 20:02:30 10° NNW 20:08:47 68° W 20:09:43 60° SW
Cosmos 1943 Rocket 4.4 20:11:13 10° N 20:13:27 13° NNE 20:13:27 13° NNE
USA 281 3.5 20:16:22 55° NE 20:16:22 55° NE 20:22:10 10° NNW
Cosmos 1844 4.2 20:15:31 10° NNW 20:20:06 54° WNW 20:20:06 54° WNW
Resurs 01 Rocket 3.9 20:42:59 21° WNW 20:42:59 21° WNW 20:45:16 10° NW
Cosmos 2360 Rocket 4.4 20:46:44 16° NNE 20:46:44 16° NNE 20:47:50 10° NNE
Terra 4.3 21:07:10 19° NNW 21:07:10 19° NNW 21:08:28 10° NNW
Cosmos 2322 Rocket 3.8 21:09:30 31° NW 21:09:30 31° NW 21:13:58 10° NNE
ATLAS 2AS CENTAUR R/B 3.9 21:03:00 10° NW 21:09:00 35° NNE 21:09:00 35° NNE
NOSS 3-4 (A) 4.5 21:13:49 10° NW 21:18:30 49° NW 21:18:30 49° NW
USA 215 4.3 21:34:39 41° NNW 21:34:39 41° NNW 21:39:05 10° NW
Cosmos 2278 Rocket 4.4 21:43:01 10° NNW 21:44:53 22° NNW 21:44:53 22° NNW
